DateTime,F1_A11,F1_S11,BsB_S11,BsG_S11,BsR_S11,BbsB_S11,BbsG_S11,BbsR_S11,BaB_A11,BaG_A11,BaR_A11,T_S11,U_S11,P_S11,T1_A11
2016-09-27T00:00:00Z,0000388,21000608,,,,,,,,,,27.3,00.0,0664.9,34.8
2016-09-27T00:01:00Z,0000388,21000608,,,,,,,,,,27.3,00.0,0664.9,34.8
2016-09-27T00:02:00Z,0000388,21000608,,,,,,,,,,27.3,00.0,0664.9,34.8
2016-09-27T00:03:00Z,0000388,61000608,,,,,,,,,,27.4,00.0,0664.9,34.8
2016-09-27T00:04:00Z,0000388,41000608,0000.00,0000.17,-000.11,0000.32,-000.02,-000.26,-000.12,-000.12,0000.14,27.4,00.0,0665.9,34.8
2016-09-27T00:05:00Z,0000388,01000608,-000.37,0000.16,-000.21,0000.18,0000.35,0000.19,0000.08,-000.09,-000.13,27.4,00.0,0666.0,34.8
2016-09-27T00:06:00Z,0000388,01000608,0000.27,-000.30,0000.18,0000.29,0000.00,0000.25,-000.02,0000.11,-000.32,27.3,00.0,0665.9,34.8
2016-09-27T00:07:00Z,0000388,01000608,0000.76,0000.17,0000.34,0000.16,0000.16,-000.14,0000.09,-000.11,0000.58,27.4,00.0,0666.0,34.8
2016-09-27T00:08:00Z,0000388,01000608,0000.28,-000.33,0000.14,0000.16,0000.16,0000.03,0000.10,0000.13,-000.37,27.3,00.0,0665.9,34.8
2016-09-27T00:09:00Z,0000388,01000608,-000.16,-000.02,0000.00,0000.25,0000.33,-000.14,-000.27,-000.01,-000.05,27.4,00.0,0665.9,34.8
2016-09-27T00:10:00Z,0000388,01000608,0000.60,0000.58,0000.10,0000.24,0000.14,0000.02,0000.07,-000.05,0000.47,27.3,00.0,0665.9,34.8
2016-09-27T00:11:00Z,0000388,01000608,0000.22,-000.09,0000.17,0000.25,-000.32,0000.16,0000.06,0000.15,-000.25,27.4,00.0,0665.9,34.8
2016-09-27T00:12:00Z,0000388,01000608,-001.01,-000.36,0000.33,-000.35,0000.16,-000.06,0000.07,-000.10,-000.38,27.4,00.0,0665.9,34.8
2016-09-27T00:13:00Z,0000388,01000608,0000.16,0000.47,0000.32,0000.16,0000.16,0000.14,0000.01,0000.06,0000.24,27.4,00.0,0665.9,34.8
2016-09-27T00:14:00Z,0000388,01000608,0000.21,0000.07,0000.51,0000.67,-000.22,0000.06,0000.00,0000.16,0000.35,27.3,00.0,0665.9,34.8
2016-09-27T00:15:00Z,0000388,01000608,0000.29,-000.59,0000.02,0000.32,0000.21,0000.10,-000.18,-000.15,-000.44,27.4,00.0,0665.9,34.8
2016-09-27T00:16:00Z,0000388,01000608,0000.83,-000.63,0000.24,0000.02,0000.44,0000.02,0000.19,0000.01,0000.38,27.4,00.0,0665.9,34.8
2016-09-27T00:17:00Z,0000388,01000608,0000.28,0000.00,-000.14,0000.00,0000.36,0000.32,0000.18,-000.10,-000.23,27.4,00.0,0665.9,34.8
2016-09-27T00:18:00Z,0000388,01000608,-000.02,0000.70,-000.02,0000.51,-000.08,0000.14,-000.15,0000.02,-000.15,27.4,00.0,0665.9,34.8
2016-09-27T00:19:00Z,0000388,01000608,0000.47,-000.26,-000.08,0000.51,0000.05,0000.14,-000.05,0000.18,0000.40,27.4,00.0,0665.9,34.8
2016-09-27T00:20:00Z,0000388,01000608,0000.25,0000.14,-000.06,-000.38,0000.38,-000.29,0000.22,0000.05,-000.13,27.4,00.0,0665.9,34.8
2016-09-27T00:21:00Z,0000388,01000608,-000.04,0001.34,0001.91,-000.56,0000.14,0000.30,0000.56,0000.43,0000.67,27.4,00.0,0665.9,34.8
2016-09-27T00:22:00Z,0000388,01000608,-000.75,0000.46,0000.42,-000.18,0000.33,0000.30,0000.01,0000.24,-000.31,27.4,00.0,0665.9,34.8
2016-09-27T00:23:00Z,0000388,01000608,-000.12,0000.02,-000.11,0000.16,0000.19,-000.13,-000.04,-000.23,0000.04,27.4,00.0,0665.9,34.8
2016-09-27T00:24:00Z,0000388,01000608,-000.38,0000.20,0000.19,0000.02,-000.11,0000.00,-000.09,0000.07,0000.10,27.4,00.0,0665.9,34.8
2016-09-27T00:25:00Z,0000388,01000608,-000.63,-000.52,-000.02,0000.16,0000.19,-000.08,0000.10,0000.09,0000.30,27.4,00.0,0665.9,34.8
2016-09-27T00:26:00Z,0000388,01000608,0000.44,-000.86,0000.32,-000.29,0000.21,0000.40,0000.23,-000.05,-000.63,27.4,00.0,0665.9,34.8
2016-09-27T00:27:00Z,0000388,01000608,0000.26,-000.50,0000.24,-000.10,0000.33,0000.13,-000.20,0000.16,0000.07,27.4,00.0,0665.9,34.8
2016-09-27T00:28:00Z,0000388,01000608,0000.20,0000.23,-000.43,-000.56,0000.05,0000.19,0000.06,-000.17,0000.13,27.4,00.0,0665.9,34.8
2016-09-27T00:29:00Z,0000388,01000608,0000.20,0000.52,0001.40,-000.46,0000.03,-000.21,0000.30,0000.62,0000.32,27.4,00.0,0666.0,34.8
2016-09-27T00:30:00Z,0000388,01000608,-000.04,-000.26,0000.16,0000.00,-000.46,0000.21,-000.10,-000.50,0000.08,27.4,00.0,0666.0,34.8
2016-09-27T00:31:00Z,0000388,01000608,-000.88,0000.38,-000.28,-000.56,-000.16,-000.16,0000.02,0000.14,0000.01,27.4,00.0,0666.0,34.8
2016-09-27T00:32:00Z,0000388,01000608,-000.35,-000.27,0000.12,-000.13,0000.03,0000.43,0000.12,-000.04,-000.41,27.4,00.0,0666.0,34.8
2016-09-27T00:33:00Z,0000388,01000608,0000.33,-000.29,-000.02,0000.97,0000.10,-000.11,-000.18,0000.13,0000.09,27.4,00.0,0666.0,34.8
2016-09-27T00:34:00Z,0000388,01000608,0000.54,0000.16,-000.05,-000.18,0000.24,-000.32,-000.07,-000.11,0000.18,27.4,00.0,0665.9,34.8
2016-09-27T00:35:00Z,0000388,01000608,0000.58,0000.19,0000.25,-000.43,0000.27,0000.32,0000.20,0000.08,-000.13,27.5,00.0,0665.9,34.8
2016-09-27T00:36:00Z,0000388,01000608,0000.26,0000.28,0000.19,0000.02,0000.33,0000.26,0000.08,0000.00,0000.08,27.4,00.0,0665.9,34.8
2016-09-27T00:37:00Z,0000388,01000608,0000.13,0000.09,0000.56,0000.05,0000.00,-000.10,-000.17,-000.02,0000.10,27.5,00.0,0665.9,34.8
2016-09-27T00:38:00Z,0000388,01000608,-000.16,-000.38,0000.33,-000.21,-000.06,0000.19,0000.07,-000.02,-000.18,27.5,00.0,0665.9,34.8
2016-09-27T00:39:00Z,0000388,01000608,0000.86,-000.05,-000.27,-000.67,-000.13,-000.14,0000.06,0000.13,0000.04,27.5,00.0,0665.9,34.8
2016-09-27T00:40:00Z,0000388,01000608,-000.61,-000.21,0000.88,0000.24,0000.24,0000.21,-000.01,-000.12,-000.02,27.5,00.0,0665.9,34.8
2016-09-27T00:41:00Z,0000388,01000608,0000.06,0000.21,0000.51,-000.43,0000.00,0000.00,-000.03,0000.22,0000.18,27.5,00.0,0665.9,34.8
2016-09-27T00:42:00Z,0000388,01000608,0000.93,-000.11,0000.17,-000.48,0000.27,-000.11,0000.13,-000.21,-000.23,27.5,00.0,0665.9,34.8
2016-09-27T00:43:00Z,0000388,01000608,-000.41,0000.04,0000.12,-000.27,0000.16,-000.26,0000.00,0000.18,-000.17,27.5,00.0,0665.9,34.8
2016-09-27T00:44:00Z,0000388,01000608,-000.27,0000.59,0000.46,0000.25,0000.10,0000.46,-000.19,-000.17,0000.04,27.5,00.0,0665.8,34.8
2016-09-27T00:45:00Z,0000388,01000608,-000.99,-000.09,0000.17,-000.05,0000.13,0000.10,0000.07,0000.15,0000.26,27.5,00.0,0665.8,34.8
2016-09-27T00:46:00Z,0000388,01000608,0000.88,0000.48,0000.14,0000.40,0000.43,-000.16,-000.00,-000.16,-000.40,27.5,00.0,0665.8,34.8
2016-09-27T00:47:00Z,0000388,01000608,0000.43,-000.02,0000.55,0000.53,-000.05,0000.19,0000.12,0000.03,0000.21,27.5,00.0,0665.8,34.8
2016-09-27T00:48:00Z,0000388,01000608,0000.19,-000.18,0000.34,0000.38,0000.36,-000.02,-000.10,0000.09,0000.40,27.5,00.0,0665.8,34.8
2016-09-27T00:49:00Z,0000388,01000608,0001.02,0000.55,-000.04,0000.45,0000.33,-000.08,-000.03,-000.07,-000.28,27.5,00.0,0665.8,34.8
2016-09-27T00:50:00Z,0000388,01000608,0000.21,-000.36,0000.05,0000.16,-000.02,0000.21,0000.05,-000.08,0000.28,27.5,00.0,0665.8,34.8
2016-09-27T00:51:00Z,0000388,01000608,0000.33,-000.20,-000.44,-000.06,-000.08,-000.33,-000.02,0000.10,-000.27,27.5,00.0,0665.8,34.8
2016-09-27T00:52:00Z,0000388,01000608,-000.05,-000.02,0000.02,-000.06,0000.22,-000.24,0000.03,0000.13,0000.12,27.4,00.0,0665.8,34.8
2016-09-27T00:53:00Z,0000388,01000608,0000.02,-000.25,-000.18,-000.53,-000.08,0000.16,-000.09,-000.15,-000.02,27.5,00.0,0665.8,34.8
2016-09-27T00:54:00Z,0000388,01000608,-000.18,0000.00,0000.58,-000.76,-000.41,0000.29,0000.10,0000.03,0000.09,27.5,00.0,0665.8,34.8
2016-09-27T00:55:00Z,0000388,01000608,-001.59,0000.35,0000.21,-000.40,0000.10,0000.27,-000.13,0000.00,-000.13,27.5,00.0,0665.8,34.8
2016-09-27T00:56:00Z,0000388,01000608,-000.09,-000.50,0000.35,-000.25,-000.36,0000.08,-000.00,0000.00,-000.03,27.5,00.0,0665.7,34.8
2016-09-27T00:57:00Z,0000388,41000608,,,,,,,,,,,,0665.8,34.8
2016-09-27T00:58:00Z,0000388,61000608,,,,,,,,,,27.5,00.0,0664.7,34.8
2016-09-27T00:59:00Z,0000388,21000608,,,,,,,,,,27.5,00.0,0664.7,34.8
2016-09-27T01:00:00Z,0000388,21000608,,,,,,,,,,27.5,00.0,0664.7,34.8
2016-09-27T01:01:00Z,0000388,21000608,,,,,,,,,,27.5,00.0,0664.7,34.8
2016-09-27T01:02:00Z,0000388,21000608,,,,,,,,,,27.5,00.0,0664.7,34.8
2016-09-27T01:03:00Z,0000388,61000608,,,,,,,,,,27.5,00.0,0664.7,34.8
2016-09-27T01:04:00Z,0000388,41000608,0000.40,-000.47,0000.28,0000.64,-000.30,0000.38,0000.03,-000.11,0000.13,27.5,00.0,0665.6,34.8
2016-09-27T01:05:00Z,0000388,01000608,-000.92,-000.09,-000.14,0000.61,-000.30,0000.26,0000.12,0000.15,0000.08,27.5,00.0,0665.7,34.8
2016-09-27T01:06:00Z,0000388,01000608,0000.18,-000.14,0000.56,-000.10,0000.08,0000.30,-000.23,0000.12,-000.02,27.5,00.0,0665.7,34.8
2016-09-27T01:07:00Z,0000388,01000608,-000.95,0000.04,0000.42,0000.64,0000.00,-000.13,0000.20,-000.06,-000.22,27.5,00.0,0665.7,34.8
2016-09-27T01:08:00Z,0000388,01000608,-000.44,-000.50,-000.16,0000.38,0000.13,-000.18,-000.14,-000.03,0000.27,27.5,00.0,0665.7,34.8
2016-09-27T01:09:00Z,0000388,01000608,0000.09,-000.11,-000.65,0000.81,0000.22,-000.26,-000.01,-000.07,0000.06,27.5,00.0,0665.7,34.8
2016-09-27T01:10:00Z,0000388,01000608,0000.95,-000.27,-000.62,0000.14,0000.17,0000.02,0000.11,0000.05,-000.35,27.5,00.0,0665.7,34.8
2016-09-27T01:11:00Z,0000388,01000608,0000.66,0000.25,0000.25,-000.27,-000.06,0000.26,-000.13,0000.01,0000.36,27.5,00.0,0665.7,34.8
2016-09-27T01:12:00Z,0000388,01000608,-000.25,-000.25,0000.21,0000.53,0000.03,-000.27,0000.12,-000.03,0000.20,27.5,00.0,0665.7,34.8
2016-09-27T01:13:00Z,0000388,01000608,-000.49,-000.52,-000.23,0000.10,0000.08,-000.45,-000.05,0000.06,-000.35,27.5,00.0,0665.6,34.8
2016-09-27T01:14:00Z,0000388,01000608,0000.15,-000.50,-000.19,0000.16,0000.08,-000.22,0000.04,-000.16,0000.22,27.5,00.0,0665.7,34.8
2016-09-27T01:15:00Z,0000388,01000608,0000.31,0000.74,-000.07,-000.27,0000.48,0000.33,0000.02,0000.14,-000.16,27.5,00.0,0665.6,34.8
2016-09-27T01:16:00Z,0000388,01000608,-000.64,-000.14,0000.18,-000.33,0000.38,-000.21,-000.04,0000.03,0000.15,27.5,00.0,0665.6,34.8
2016-09-27T01:17:00Z,0000388,01000608,-000.46,-000.41,0000.21,0000.25,-000.29,-000.26,-000.02,-000.03,0000.18,27.5,00.0,0665.6,34.8
2016-09-27T01:18:00Z,0000388,01000608,0000.29,-000.70,-000.12,0000.21,0000.10,-000.03,0000.06,-000.11,-000.34,27.5,00.0,0665.6,34.8
2016-09-27T01:19:00Z,0000388,01000608,0000.73,0000.50,-000.02,0000.10,0000.05,0000.06,0000.09,0000.22,0000.16,27.5,00.0,0665.6,34.8
2016-09-27T01:20:00Z,0000388,01000608,-001.21,0000.52,0000.48,0000.08,0000.24,0000.00,-000.06,-000.10,-000.13,27.5,00.0,0665.6,34.8
2016-09-27T01:21:00Z,0000388,01000608,0000.42,-000.86,-000.12,-000.45,0000.08,-000.13,0000.01,-000.07,0000.13,27.5,00.0,0665.6,34.8
2016-09-27T01:22:00Z,0000388,01000608,0000.09,-000.02,-000.19,0000.25,0000.05,0000.02,-000.13,0000.26,-000.11,27.5,00.0,0665.6,34.8
2016-09-27T01:23:00Z,0000388,01000608,-000.46,-000.14,0000.25,0000.30,0000.25,0000.08,0000.14,-000.18,0000.20,27.5,00.0,0665.6,34.8
2016-09-27T01:24:00Z,0000388,01000608,-000.18,-000.20,0000.11,-000.40,-000.24,-000.05,0000.13,0000.06,-000.09,27.5,00.0,0665.6,34.8
2016-09-27T01:25:00Z,0000388,01000608,0000.00,0000.16,0000.26,0000.00,-000.25,-000.21,-000.20,-000.05,-000.04,27.5,00.0,0665.6,34.8
2016-09-27T01:26:00Z,0000388,01000608,-000.48,-000.02,-000.58,0000.06,0000.03,-000.43,0000.02,0000.04,0000.11,27.5,00.0,0665.6,34.8
2016-09-27T01:27:00Z,0000388,01000608,-000.59,0000.13,-000.02,0000.51,0000.08,0000.32,-000.00,-000.05,-000.26,27.5,00.0,0665.6,34.8
2016-09-27T01:28:00Z,0000388,01000608,0000.66,-000.31,0000.70,0000.08,-000.38,0000.43,0000.04,0000.11,0000.08,27.5,00.0,0665.5,34.8
2016-09-27T01:29:00Z,0000388,01000608,-000.18,-000.02,0000.19,0000.18,0000.33,-000.29,0000.06,-000.14,0000.26,27.5,00.0,0665.5,34.8
2016-09-27T01:30:00Z,0000388,01000608,0000.15,0000.45,-000.47,0000.30,-000.11,-000.10,-000.10,0000.12,-000.06,27.5,00.0,0665.5,34.8
2016-09-27T01:31:00Z,0000388,01000608,-000.09,-000.40,-000.11,-000.02,-000.33,-000.29,0000.01,0000.03,0000.09,27.5,00.0,0665.5,34.8
2016-09-27T01:32:00Z,0000388,01000608,0000.75,0000.07,-000.07,-000.37,0000.14,0000.19,0000.05,-000.02,-000.13,27.5,00.0,0665.5,34.8
2016-09-27T01:33:00Z,0000388,01000608,-000.55,-000.68,-000.02,0000.10,-000.48,-000.02,-000.11,-000.05,-000.08,27.5,00.0,0665.5,34.8
2016-09-27T01:34:00Z,0000388,01000608,0000.72,-000.07,-000.28,-000.27,-000.29,-000.37,0000.04,0000.09,0000.23,27.5,00.0,0665.5,34.8
2016-09-27T01:35:00Z,0000388,01000608,-000.31,0000.41,0000.07,-000.03,0000.10,0000.35,0000.04,0000.01,-000.30,27.5,00.0,0665.5,34.8
2016-09-27T01:36:00Z,0000388,01000608,0000.40,-000.23,0000.37,0000.18,-000.02,-000.32,0000.25,0000.03,0000.27,27.5,00.0,0665.5,34.8
2016-09-27T01:37:00Z,0000388,01000608,0000.68,-000.83,-000.28,0000.18,-000.44,-000.10,-000.04,-000.03,-000.06,27.5,00.0,0665.4,34.8
2016-09-27T01:38:00Z,0000388,01000608,-000.18,-000.23,-000.07,-000.18,0000.03,-000.30,-000.11,0000.11,0000.20,27.5,00.0,0665.4,34.8
2016-09-27T01:39:00Z,0000388,01000608,-001.14,-000.09,-000.33,0000.06,0000.35,-000.14,0000.13,-000.20,-000.32,27.5,00.0,0665.4,34.8
2016-09-27T01:40:00Z,0000388,01000608,-000.48,-000.31,0000.07,0000.06,-000.35,0000.21,-000.13,0000.02,0000.34,27.5,00.0,0665.4,34.8
2016-09-27T01:41:00Z,0000388,01000608,0000.79,-000.52,-000.19,-000.29,0000.25,-000.02,0000.07,0000.18,-000.21,27.5,00.0,0665.3,34.8
2016-09-27T01:42:00Z,0000388,01000608,-001.14,-000.79,-000.23,0000.16,-000.17,0000.40,-000.01,-000.15,-000.00,27.5,00.0,0665.3,34.8
2016-09-27T01:43:00Z,0000388,01000608,-001.36,-000.02,0000.19,0000.10,-000.06,-000.05,0000.08,0000.14,-000.28,27.5,00.0,0665.3,34.8
2016-09-27T01:44:00Z,0000388,01000608,0000.46,0000.02,-000.35,0000.18,-000.03,-000.45,-000.25,-000.18,-000.02,27.5,00.0,0665.3,34.8
2016-09-27T01:45:00Z,0000388,01000608,-001.17,-000.38,-000.12,0000.32,0000.40,-000.10,0000.26,0000.20,0000.22,27.5,00.0,0665.3,34.8
2016-09-27T01:46:00Z,0000388,01000608,-000.66,0000.16,0000.09,-000.22,0000.13,-000.16,0000.06,-000.14,0000.23,27.5,00.0,0665.2,34.8
2016-09-27T01:47:00Z,0000388,01000608,0000.95,-000.29,0000.14,-000.40,-000.25,0000.22,-000.19,0000.20,0000.05,27.5,00.0,0665.2,34.8
2016-09-27T01:48:00Z,0000388,01000608,0000.60,0000.31,-000.15,0000.43,-000.19,-000.05,0000.07,-000.24,-000.51,27.5,00.0,0665.2,34.8
2016-09-27T01:49:00Z,0000388,01000608,-000.17,-000.27,-000.07,0000.14,-000.29,0000.16,0000.18,0000.22,0000.25,27.5,00.0,0665.2,34.8
2016-09-27T01:50:00Z,0000388,01000608,-000.13,-000.32,-000.23,0000.16,-000.14,0000.00,-000.21,0000.01,-000.04,27.5,00.0,0665.2,34.8
2016-09-27T01:51:00Z,0000388,01000608,0000.17,-001.04,0000.09,0000.22,-000.11,-000.35,0000.07,-000.22,0000.05,27.5,00.0,0665.2,34.8
2016-09-27T01:52:00Z,0000388,01000608,-000.20,0000.11,0000.09,-000.08,-000.21,0000.05,-000.05,-000.06,0000.10,27.5,00.0,0665.2,34.8
2016-09-27T01:53:00Z,0000388,01000608,0000.53,-000.02,-000.19,0000.33,-000.16,-000.08,0000.03,0000.15,-000.03,27.5,00.0,0665.2,34.8
2016-09-27T01:54:00Z,0000388,01000608,0000.22,-000.42,0000.29,0000.78,-000.10,0000.10,-000.01,-000.03,0000.02,27.5,00.0,0665.2,34.8
2016-09-27T01:55:00Z,0000388,01000608,0000.98,-000.21,0000.08,0000.13,-000.11,0000.19,-000.12,-000.09,-000.04,27.5,00.0,0665.1,34.8
2016-09-27T01:56:00Z,0000388,01000608,0000.02,0000.00,-000.30,-000.40,0000.24,0000.22,0000.02,0000.22,-000.22,27.5,00.0,0665.1,34.8
2016-09-27T01:57:00Z,0000388,41000608,,,,,,,,,,,,0665.0,34.8
2016-09-27T01:58:00Z,0000388,61000608,,,,,,,,,,27.5,00.0,0664.0,34.8
2016-09-27T01:59:00Z,0000388,21000608,,,,,,,,,,27.5,00.0,0664.0,34.8
2016-09-27T02:00:00Z,0000388,21000608,,,,,,,,,,27.5,00.0,0664.0,34.8
2016-09-27T02:01:00Z,0000388,21000608,,,,,,,,,,27.5,00.0,0664.0,34.8
2016-09-27T02:02:00Z,0000388,21000608,,,,,,,,,,27.5,00.0,0664.0,34.8
2016-09-27T02:03:00Z,0000388,61000608,,,,,,,,,,27.6,00.0,0664.0,34.8
2016-09-27T02:04:00Z,0000388,41000608,0000.50,-000.70,-000.65,-000.06,0000.27,-000.05,0000.01,0000.01,0000.18,27.5,00.0,0664.9,34.8
2016-09-27T02:05:00Z,0000388,01000608,0000.50,-000.14,-000.23,0000.10,-000.08,-000.03,-000.13,-000.03,0000.01,27.5,00.0,0665.0,34.8
2016-09-27T02:06:00Z,0000388,01000608,-000.06,0000.52,-000.16,0000.32,-000.14,-000.42,0000.03,0000.09,-000.03,27.5,00.0,0664.9,34.8
2016-09-27T02:07:00Z,0000388,01000608,-000.15,0000.05,0000.07,-000.21,-000.19,-000.19,0000.28,0000.05,-000.15,27.5,00.0,0664.9,34.8
2016-09-27T02:08:00Z,0000388,01000608,0000.06,-000.50,-000.40,-000.19,-000.41,-000.03,-000.17,-000.22,-000.04,27.5,00.0,0664.9,34.8
2016-09-27T02:09:00Z,0000388,01000608,0000.39,-000.29,0000.30,0000.62,0000.13,0000.06,-000.04,0000.24,0000.20,27.5,00.0,0664.9,34.8
2016-09-27T02:10:00Z,0000388,01000608,0001.21,-000.29,-000.48,-000.14,-000.16,-000.05,-000.08,-000.13,0000.07,27.5,00.0,0664.9,34.8
2016-09-27T02:11:00Z,0000388,01000608,0000.11,0000.14,-000.07,0001.04,-000.25,-000.27,-000.20,-000.10,-000.07,27.4,00.0,0664.9,34.8
2016-09-27T02:12:00Z,0000388,01000608,0000.99,-000.63,0000.19,0000.32,-000.05,-000.30,0000.27,0000.09,0000.07,27.5,00.0,0664.8,34.8
2016-09-27T02:13:00Z,0000388,01000608,0000.20,-000.23,0000.16,-000.40,-000.57,0000.03,-000.05,0000.00,0000.12,27.5,00.0,0664.8,34.8
2016-09-27T02:14:00Z,0000388,01000608,-000.06,-000.02,-000.12,-000.19,-000.13,0000.08,0000.13,0000.12,-000.27,27.4,00.0,0664.8,34.8
2016-09-27T02:15:00Z,0000388,01000608,0000.75,0000.04,-000.56,0000.10,0000.08,-000.30,-000.24,-000.11,0000.37,27.4,00.0,0664.8,34.7
2016-09-27T02:16:00Z,0000388,01000608,0000.70,-000.02,-000.58,-000.11,-000.43,-000.40,0000.16,-000.08,-000.35,27.4,00.0,0664.8,34.7
2016-09-27T02:17:00Z,0000388,01000608,0000.09,-000.45,-000.12,0000.33,-000.40,0000.26,-000.18,0000.10,0000.07,27.3,00.0,0664.8,34.7
2016-09-27T02:18:00Z,0000388,01000608,0000.44,-000.74,-000.74,-000.24,0000.10,-000.35,0000.29,-000.03,0000.06,27.3,00.0,0664.7,34.7
2016-09-27T02:19:00Z,0000388,01000608,0000.95,-000.77,-000.35,0000.16,-000.14,0000.24,-000.11,-000.01,0000.04,27.3,00.0,0664.7,34.7
2016-09-27T02:20:00Z,0000388,01000608,0000.73,0000.18,-000.07,0000.65,0000.10,0000.22,0000.12,0000.09,0000.12,27.3,00.0,0664.7,34.7
2016-09-27T02:21:00Z,0000388,01000608,0001.28,0000.40,0000.42,0000.70,0000.11,0000.56,-000.04,0000.08,-000.02,27.3,00.0,0664.7,34.7
2016-09-27T02:22:00Z,0000388,01000608,0001.07,0001.49,0001.54,-000.19,0000.13,0000.42,0000.74,0000.44,0000.53,27.3,00.0,0664.7,34.7
2016-09-27T02:23:00Z,0000388,01000608,0000.17,-000.64,-000.15,0000.29,-000.49,-000.13,-000.17,-000.01,-000.22,27.2,00.0,0664.7,34.7
2016-09-27T02:24:00Z,0000388,01000608,-000.36,-000.38,0000.12,-000.27,0000.14,-000.22,0000.13,0000.07,0000.15,27.2,00.0,0664.7,34.7
2016-09-27T02:25:00Z,0000388,01000608,0000.98,-000.21,-000.32,-000.16,0000.05,0000.00,-000.16,-000.00,-000.22,27.2,00.0,0664.7,34.7
2016-09-27T02:26:00Z,0000388,01000608,-000.06,0000.04,0000.05,0000.05,-000.02,-000.21,0000.16,0000.08,0000.44,27.2,00.0,0664.7,34.7
2016-09-27T02:27:00Z,0000388,01000608,0000.13,-000.14,-000.09,0000.24,-000.46,0000.06,-000.21,-000.12,-000.39,27.2,00.0,0664.7,34.7
2016-09-27T02:28:00Z,0000388,01000608,-000.21,0000.05,0000.17,0000.51,0000.21,0000.18,0000.17,0000.08,-000.05,27.1,00.0,0664.7,34.7
2016-09-27T02:29:00Z,0000388,01000608,-000.06,0000.03,-000.06,0000.05,-000.14,-000.19,-000.14,0000.01,0000.08,27.1,00.0,0664.7,34.7
2016-09-27T02:30:00Z,0000388,01000608,-000.60,-000.45,-000.25,0000.33,0000.19,-000.14,0000.11,-000.02,0000.15,27.1,00.0,0664.7,34.7
2016-09-27T02:31:00Z,0000388,01000608,0000.56,-000.39,0000.12,0000.14,-000.14,-000.33,-000.06,0000.02,-000.18,27.0,00.0,0664.7,34.7
2016-09-27T02:32:00Z,0000388,01000608,-000.02,-000.50,-000.26,0000.19,-000.38,-000.11,0000.13,0000.05,0000.10,27.0,00.0,0664.7,34.7
2016-09-27T02:33:00Z,0000388,01000608,-000.09,-000.09,-000.02,-000.21,-000.19,0000.03,-000.19,-000.19,-000.17,27.0,00.0,0664.7,34.7
2016-09-27T02:34:00Z,0000388,01000608,-000.31,-000.32,0000.21,-000.06,-000.05,0000.14,0000.12,0000.13,0000.10,27.0,00.0,0664.7,34.7
2016-09-27T02:35:00Z,0000388,01000608,-000.53,-000.07,-000.19,0000.21,-000.24,0000.11,0000.04,0000.04,-000.10,27.0,00.0,0664.7,34.7
2016-09-27T02:36:00Z,0000388,01000608,0000.44,-000.02,-000.04,0000.05,0000.17,-000.22,-000.03,-000.09,0000.09,27.0,00.0,0664.7,34.7
2016-09-27T02:37:00Z,0000388,01000608,0000.24,0000.16,0000.40,-000.29,-000.19,0000.16,0000.03,-000.08,0000.13,27.0,00.0,0664.7,34.7
2016-09-27T02:38:00Z,0000388,01000608,0000.33,-000.42,0000.19,-000.37,-000.08,0000.10,0000.09,0000.17,0000.02,27.0,00.0,0664.6,34.7
2016-09-27T02:39:00Z,0000388,01000608,0000.55,-000.74,0000.03,-000.21,0000.14,0000.16,-000.21,0000.07,-000.16,26.9,00.0,0664.6,34.7
2016-09-27T02:40:00Z,0000388,01000608,0000.38,-000.47,0000.21,0001.10,-000.03,-000.16,0000.02,-000.06,-000.10,27.0,00.0,0664.6,34.7
2016-09-27T02:41:00Z,0000388,01000608,0000.00,-000.36,-000.21,0000.54,0000.10,-000.02,-000.01,0000.07,0000.04,27.0,00.0,0664.6,34.7
2016-09-27T02:42:00Z,0000388,01000608,0000.04,-000.51,0000.03,0000.25,-000.11,0000.11,0000.02,0000.02,0000.14,27.0,00.0,0664.6,34.7
2016-09-27T02:43:00Z,0000388,01000608,-000.02,0000.05,-000.33,-000.16,0000.03,-000.05,-000.06,-000.10,0000.02,26.9,00.0,0664.6,34.7
2016-09-27T02:44:00Z,0000388,01000608,-000.31,-000.43,0000.21,-000.54,-000.35,-000.06,0000.11,0000.05,0000.10,26.9,00.0,0664.5,34.7
2016-09-27T02:45:00Z,0000388,01000608,0000.97,0000.02,-000.61,0000.81,0000.13,0000.16,-000.10,0000.10,-000.22,26.9,00.0,0664.5,34.7
2016-09-27T02:46:00Z,0000388,01000608,0000.79,-000.23,-000.30,-000.19,-000.05,-000.13,-000.01,-000.22,0000.41,26.9,00.0,0664.5,34.7
2016-09-27T02:47:00Z,0000388,01000608,0001.36,0000.05,-000.04,0000.25,-000.22,-000.27,-000.05,0000.09,-000.30,26.9,00.0,0664.5,34.7
2016-09-27T02:48:00Z,0000388,01000608,0000.35,-000.18,0000.14,0000.49,-000.68,0000.02,-000.08,-000.02,0000.12,26.9,00.0,0664.5,34.7
2016-09-27T02:49:00Z,0000388,01000608,0000.59,-000.13,0000.23,0000.48,0000.08,0000.18,0000.30,0000.03,-000.01,26.9,00.0,0664.5,34.7
2016-09-27T02:50:00Z,0000388,01000608,0000.00,-000.13,0000.13,0000.62,-000.08,0000.37,0000.07,0000.10,0000.09,26.9,00.0,0664.4,34.7
2016-09-27T02:51:00Z,0000388,01000608,0000.09,-000.33,-000.05,0000.37,-000.32,-000.02,0000.05,0000.07,0000.10,26.9,00.0,0664.4,34.7
2016-09-27T02:52:00Z,0000388,01000608,0001.02,-000.25,0000.26,0000.48,0000.24,0000.14,0000.16,0000.09,-000.07,26.8,00.0,0664.4,34.7
2016-09-27T02:53:00Z,0000388,01000608,0000.14,-000.21,-000.09,0000.05,0000.02,-000.05,-000.21,-000.07,-000.04,26.9,00.0,0664.4,34.7
2016-09-27T02:54:00Z,0000388,01000608,0000.13,-000.18,-000.32,0000.16,-000.17,-000.26,-000.03,0000.08,0000.02,26.8,00.0,0664.4,34.7
2016-09-27T02:55:00Z,0000388,01000608,0001.21,-000.18,-000.51,0000.40,-000.02,-000.21,0000.11,0000.03,0000.08,26.8,00.0,0664.4,34.7
2016-09-27T02:56:00Z,0000388,01000608,0000.44,-000.45,0000.16,-000.29,-000.40,0000.06,-000.01,-000.08,-000.03,26.8,00.0,0664.4,34.7
2016-09-27T02:57:00Z,0000388,41000608,,,,,,,,,,,,0664.4,34.7
2016-09-27T02:58:00Z,0000388,61000608,,,,,,,,,,26.8,00.0,0663.3,34.7
2016-09-27T02:59:00Z,0000388,21000608,,,,,,,,,,26.8,00.0,0663.3,34.7
2016-09-27T03:00:00Z,0000388,21000608,,,,,,,,,,26.8,00.0,0663.3,34.7
2016-09-27T03:01:00Z,0000388,21000608,,,,,,,,,,26.8,00.0,0663.3,34.7
2016-09-27T03:02:00Z,0000388,21000608,,,,,,,,,,26.8,00.0,0663.3,34.7
2016-09-27T03:03:00Z,0000388,61000608,,,,,,,,,,26.9,00.0,0663.3,34.7
2016-09-27T03:04:00Z,0000388,41000608,-000.22,-000.14,-000.28,-000.13,0000.14,0000.02,-000.00,0000.09,-000.03,27.0,00.0,0664.3,34.7
2016-09-27T03:05:00Z,0000388,01000608,0001.28,0000.32,-000.28,-000.14,0000.05,-000.05,-000.01,-000.22,0000.05,27.0,00.0,0664.4,34.7
2016-09-27T03:06:00Z,0000388,01000608,0000.18,0000.02,0000.16,0000.21,-000.03,0000.03,-000.13,0000.02,0000.03,26.9,00.0,0664.4,34.7
2016-09-27T03:07:00Z,0000388,01000608,-000.81,0000.01,0000.01,-000.18,-000.40,0000.08,0000.09,0000.35,0000.16,26.9,00.0,0664.4,34.7
2016-09-27T03:08:00Z,0000388,01000608,0000.58,0000.38,-000.48,0000.11,0000.10,0000.18,0000.06,-000.15,-000.14,27.0,00.0,0664.4,34.7
2016-09-27T03:09:00Z,0000388,01000608,-000.15,0000.78,0000.04,0000.89,0000.21,0000.24,-000.00,-000.03,0000.07,27.0,00.0,0664.3,34.7
2016-09-27T03:10:00Z,0000388,01000608,0000.18,0000.73,-000.13,0000.03,0000.05,0000.24,0000.28,0000.30,0000.46,27.0,00.0,0664.3,34.7
2016-09-27T03:11:00Z,0000388,01000608,0000.46,0000.49,0000.17,0000.57,0000.21,0000.22,-000.12,0000.08,-000.39,27.0,00.0,0664.3,34.7
2016-09-27T03:12:00Z,0000388,01000608,0001.13,0000.30,-000.11,-000.08,-000.17,0000.10,0000.17,0000.04,0000.16,27.0,00.0,0664.3,34.7